Flag for Japan Weather past 2 weeks in Minamisōma, Japan

Now
66 °F

Scattered clouds.


Feels Like: 66 °F
Forecast: 37 / 67 °F
Wind: 15 mph from Northwest

Location: Sendai Airport


UV Index: 5 (Moderate)

Visibility: N/A


Pressure: 29.83 "Hg

Humidity: 13%

Dew point: 14 °F

Location of MinamisōmaLocation

Historic Weather in Minamisōma

°F

Minamisōma temperature yesterday

Maximum temperature yesterday: 59 °F (at 12:00 PM)
Minimum temperature yesterday: 36 °F (at 6:00 AM)
Average temperature yesterday: 54 °F

Past Weeks' High & Low Weather Summary

 TemperatureHumidityPressure
High70 °F (Apr 16, 11:46 AM)100% (Apr 3, 6:00 AM)30.21 "Hg (Apr 3, 6:00 AM)
Low34 °F (Apr 14, 6:00 AM)13% (Apr 16, 1:00 PM)29.24 "Hg (Apr 4, 1:00 PM)
Average51 °F53%29.89 "Hg
* Reported Apr 1 4:00 PM — Apr 16 4:00 PM, Minamisōma, Weather by CustomWeather, © 2014

Note: Actual official high and low records may vary slightly from our data, if they occured in-between our weather recording intervals... More about our weather records

Advertising

Historic Weather Conditions — Data for Previous 24 hours

 ConditionsComfort  
Time TempWeatherWind HumidityBarometerVisibility
4:00 PM
Apr 16
66 °FScattered clouds.15 mph13%29.83 "HgN/A
3:00 PM66 °FScattered clouds.20 mph13%29.83 "HgN/A
2:00 PM68 °FPartly sunny.23 mph13%29.83 "HgN/A
1:00 PM70 °FPartly sunny.15 mph13%29.83 "HgN/A
12:00 PM59 °FPartly sunny.15 mph48%29.86 "HgN/A
11:46 AM70 °FSunny.12 mph15%29.86 "Hg10 mi
11:00 AM66 °FSunny.23 mph15%29.86 "Hg10 mi
10:00 AM64 °FSunny.17 mph19%29.86 "Hg10 mi
8:00 AM61 °FSunny.10 mph29%29.89 "Hg10 mi
7:00 AM57 °FPassing clouds.10 mph39%29.86 "HgN/A
6:00 AM52 °FSunny.7 mph54%29.86 "Hg10 mi
9:00 PM
Apr 15
54 °FSprinkles. Passing clouds.12 mph67%29.86 "HgN/A
8:00 PM55 °FSprinkles. Partly cloudy.5 mph67%29.83 "HgN/A
7:00 PM54 °FPassing clouds.3 mph77%29.80 "HgN/A
6:00 PM57 °FSunny.7 mph63%29.80 "Hg10 mi
5:00 PM57 °FSunny.10 mph67%29.80 "Hg10 mi
Weather by CustomWeather, © 2014

See weather overview